Volver al catálogo

EXPRESS AM-33

ActivoComunicacionesGEO
NORAD 32478·PAYLOAD·🇷🇺 Russia

Lanzado Jan 28, 2008 desde Baikonur Cosmodrome

Loading…

TLE

ActualizadoSource: Space-Track

Época: Sep 14, 2026, 06:57 UTC

1 32478U 08003A   26257.29024437 -.00000006  00000-0  00000-0 0  9995
2 32478   5.0232  74.1725 0014249 171.6870 213.3205  1.00244501 54635

Sigue EXPRESS AM-33 en tiempo real con AllMySat

Download on the App Store